Granada, Spain

4:10 PM CEST on April 27, 2017 (GMT +0200)
Granada

Weather History for LEGR - February, 2013

Change the Weather History Date:

Tuesday, February 19, 2013

  Actual Average Record
Temperature  
Mean Temperature 52 °F -  
Max Temperature 55 °F 62 °F 75 °F (2000)
Min Temperature 49 °F 36 °F 19 °F (2005)
Degree Days  
Heating Degree Days 13    
Growing Degree Days 2 (Base 50)    
Moisture  
Dew Point 48 °F    
Average Humidity 86    
Maximum Humidity 100    
Minimum Humidity 48    
Precipitation  
Precipitation 0.00 in - - ()
Sea Level Pressure  
Sea Level Pressure 29.80 in    
Wind  
Wind Speed 2 mph ()    
Max Wind Speed 8 mph    
Max Gust Speed -    
Visibility 7.1 miles    
Events Rain    
Averages and records for this station are not official NWS values.
T = Trace of Precipitation, MM = Missing Value Source: Averaged Metar Reports

Daily Weather History Graph

Daily Weather History Graph

Search for Another Location

Airport or City:

Trip Planner

Search our weather history database for the weather conditions in past years. The results will help you decide how hot, cold, wet, or windy it might be!

Date:

Astronomy

Feb. 19, 2013 Rise Set
Actual Time 7:59 AM CET 6:59 PM CET
Civil Twilight 7:32 AM CET 7:25 PM CET
Nautical Twilight 7:02 AM CET 7:56 PM CET
Astronomical Twilight 6:32 AM CET 8:26 PM CET
Moon 1:23 PM CET (2/19) 3:14 AM CET (2/19)
Length of Visible Light 11h 52m
Length of Day
11h 00m
Waxing Gibbous, 65% of the Moon is Illuminated
Feb 19
Waxing Gibbous
Feb 25
Full
Mar 4
Last Quarter
Mar 11
New
Mar 19
First Quarter

Hourly Weather History & Observations

Time (CET) Temp. Dew Point Humidity Pressure Visibility Wind Dir Wind Speed Gust Speed Precip Events Conditions
1:00 AM 54 °F 40 °F 48% 29.83 in 19 mi South 6.9 mph - -   Clear
6:00 AM 50.0 °F 46.4 °F 87% 29.80 in 6.2 mi Calm Calm - N/A   Scattered Clouds
6:30 AM 50.0 °F 46.4 °F 87% 29.80 in 6.2 mi Variable 1.2 mph - N/A   Scattered Clouds
7:00 AM 50 °F 42 °F 64% 29.81 in 9 mi Calm Calm - -   Partly Cloudy
7:00 AM 50.0 °F 46.4 °F 87% 29.80 in 6.2 mi Calm Calm - N/A   Scattered Clouds
7:30 AM 50.0 °F 46.4 °F 87% 29.80 in 6.2 mi Calm Calm - N/A   Scattered Clouds
8:00 AM 50.0 °F 46.4 °F 87% 29.80 in 6.2 mi Calm Calm - N/A   Scattered Clouds
8:30 AM 50.0 °F 46.4 °F 87% 29.80 in 6.2 mi Calm Calm - N/A   Scattered Clouds
9:00 AM 50.0 °F 46.4 °F 87% 29.80 in 6.2 mi ESE 4.6 mph - N/A   Scattered Clouds
10:00 AM 51.8 °F 46.4 °F 82% 29.83 in 6.2 mi Calm Calm - N/A   Light Drizzle
10:30 AM 51.8 °F 48.2 °F 88% 29.83 in 6.2 mi Variable 1.2 mph - N/A   Drizzle
11:00 AM 51.8 °F 48.2 °F 88% 29.83 in 6.2 mi Calm Calm - N/A   Mostly Cloudy
11:30 AM 53.6 °F 48.2 °F 82% 29.83 in 6.2 mi Calm Calm - N/A   Mostly Cloudy
12:00 PM 53.6 °F 46.4 °F 77% 29.83 in 6.2 mi Variable 5.8 mph - N/A   Mostly Cloudy
12:30 PM 53.6 °F 48.2 °F 82% 29.83 in 6.2 mi Calm Calm - N/A   Mostly Cloudy
1:00 PM 54 °F 43 °F 57% 29.81 in 19 mi NNE 2.3 mph - -   Partly Cloudy
1:00 PM 55.4 °F 48.2 °F 77% 29.80 in 6.2 mi Variable 2.3 mph - N/A   Mostly Cloudy
1:30 PM 55.4 °F 48.2 °F 77% 29.80 in 6.2 mi NNE 5.8 mph - N/A   Mostly Cloudy
2:00 PM 55.4 °F 46.4 °F 72% 29.80 in 6.2 mi NNE 6.9 mph - N/A   Mostly Cloudy
2:30 PM 55.4 °F 46.4 °F 72% 29.77 in 6.2 mi Variable 1.2 mph - N/A   Mostly Cloudy
3:30 PM 53.6 °F 50.0 °F 88% 29.77 in 6.2 mi NW 8.1 mph - N/A   Mostly Cloudy
4:00 PM 53.6 °F 48.2 °F 82% 29.77 in 6.2 mi WNW 8.1 mph - N/A   Mostly Cloudy
4:30 PM 51.8 °F 48.2 °F 88% 29.77 in 6.2 mi WNW 4.6 mph - N/A Rain Rain
5:00 PM 51.8 °F 48.2 °F 88% 29.77 in 6.2 mi WNW 3.5 mph - N/A   Mostly Cloudy
5:30 PM 51.8 °F 50.0 °F 94% 29.77 in 6.2 mi Variable 2.3 mph - N/A   Mostly Cloudy
6:00 PM 51.8 °F 50.0 °F 94% 29.77 in 6.2 mi Variable 1.2 mph - N/A   Mostly Cloudy
6:30 PM 51.8 °F 50.0 °F 94% 29.77 in 6.2 mi Calm Calm - N/A   Mostly Cloudy
7:00 PM 51 °F 45 °F 72% 29.79 in 19 mi ESE 3.5 mph - -   Partly Cloudy
7:00 PM 51.8 °F 50.0 °F 94% 29.77 in 6.2 mi Variable 2.3 mph - N/A   Mostly Cloudy
7:30 PM 50.0 °F 50.0 °F 100% 29.80 in 6.2 mi ESE 3.5 mph - N/A   Mostly Cloudy
8:00 PM 50.0 °F 50.0 °F 100% 29.80 in 6.2 mi Variable 2.3 mph - N/A   Mostly Cloudy
8:30 PM 50.0 °F 50.0 °F 100% 29.80 in 6.2 mi Calm Calm - N/A   Drizzle
9:00 PM 50.0 °F 50.0 °F 100% 29.80 in 5.6 mi Calm Calm - N/A Rain Light Rain
9:30 PM 50.0 °F 50.0 °F 100% 29.80 in 4.3 mi Variable 1.2 mph - N/A Rain Light Rain
10:00 PM 50.0 °F 50.0 °F 100% 29.83 in 4.3 mi Calm Calm - N/A Rain Light Rain
10:30 PM 50.0 °F 50.0 °F 100% 29.83 in 4.3 mi Variable 1.2 mph - N/A   Mostly Cloudy
11:00 PM 50.0 °F 50.0 °F 100% 29.83 in 6.2 mi Variable 1.2 mph - N/A   Mostly Cloudy